Weather History for Sparta, TN

Change the Weather History Date:

Saturday, August 24, 2013

  Actual Average (KCSV) Record (KCSV)
Temperature  
Mean Temperature 74 °F 73 °F  
Max Temperature 87 °F 83 °F 97 °F (2007)
Min Temperature 62 °F 64 °F 49 °F (1997)
Degree Days  
Heating Degree Days 0    
Month to date heating degree days  
Since 1 June heating degree days  
Since 1 July heating degree days  
Cooling Degree Days 10    
Month to date cooling degree days  
Year to date cooling degree days  
Since 1 June cooling degree days  
Growing Degree Days 24 (Base 50)    
Moisture  
Dew Point 65 °F    
Average Humidity 76    
Maximum Humidity 100    
Minimum Humidity 40    
Precipitation  
Precipitation 0.00 in 0.12 in 1.42 in (1999)
Month to date precipitation 3.21  
Year to date precipitation 37.34  
Sea Level Pressure  
Sea Level Pressure 30.18 in    
Wind  
Wind Speed 1 mph (East)    
Max Wind Speed 10 mph    
Max Gust Speed -    
Visibility 7 miles    
Events      
T = Trace of Precipitation, MM = Missing Value Source: NWS Daily Summary

Daily Weather History Graph

Daily Weather History Graph

Search for Another Location

Airport:

Trip Planner

Search our weather history database for the weather conditions in past years. The results will help you decide how hot, cold, wet, or windy it might be!

Date:

Astronomy

Aug. 24, 2013 Rise Set
Actual Time 6:07 AM CDT 7:20 PM CDT
Civil Twilight 5:41 AM CDT 7:46 PM CDT
Nautical Twilight 5:09 AM CDT 8:18 PM CDT
Astronomical Twilight 4:36 AM CDT 8:51 PM CDT
Moon 9:24 PM CDT (8/24) 9:57 AM CDT (8/24)
Length of Visible Light 14h 05m
Length of Day
13h 12m
Waning Gibbous, 84% of the Moon is Illuminated
Aug 24
Waning Gibbous
Aug 28
Last Quarter
Sep 5
New
Sep 12
First Quarter
Sep 19
Full

Hourly Weather History & Observations

Time (CDT) Temp. Heat Index Dew Point Humidity Pressure Visibility Wind Dir Wind Speed Gust Speed Precip Events Conditions
12:35 AM 68.0 °F - 66.2 °F 94% 30.13 in 0.5 mi Calm Calm - N/A   Overcast
12:55 AM 68.0 °F - 66.2 °F 94% 30.12 in 0.2 mi Calm Calm - N/A   Overcast
1:15 AM 68.0 °F - 66.2 °F 94% 30.12 in 0.2 mi Calm Calm - N/A   Unknown
1:35 AM 66.2 °F - 66.2 °F 100% 30.11 in 0.2 mi Calm Calm - N/A   Overcast
1:55 AM 66.2 °F - 66.2 °F 100% 30.11 in 0.2 mi Calm Calm - N/A   Unknown
2:15 AM 66.2 °F - 66.2 °F 100% 30.12 in 0.2 mi Calm Calm - N/A   Overcast
2:35 AM 66.2 °F - 66.2 °F 100% 30.12 in 0.2 mi Calm Calm - N/A   Overcast
2:55 AM 66.2 °F - 64.4 °F 94% 30.12 in 0.2 mi ENE 3.5 mph - N/A   Overcast
3:15 AM 64.4 °F - 64.4 °F 100% 30.12 in 0.2 mi Calm Calm - N/A   Overcast
3:35 AM 64.4 °F - 64.4 °F 100% 30.13 in 0.5 mi Calm Calm - N/A   Unknown
3:55 AM 64.4 °F - 64.4 °F 100% 30.13 in 0.2 mi Calm Calm - N/A   Overcast
4:15 AM 64.4 °F - 64.4 °F 100% 30.14 in 0.5 mi Calm Calm - N/A   Overcast
4:35 AM 64.4 °F - 64.4 °F 100% 30.14 in 0.2 mi Calm Calm - N/A   Unknown
4:55 AM 64.4 °F - 64.4 °F 100% 30.14 in 0.5 mi East 3.5 mph - N/A   Overcast
5:15 AM 64.4 °F - 64.4 °F 100% 30.15 in 0.5 mi Calm Calm - N/A   Overcast
5:35 AM 64.4 °F - 64.4 °F 100% 30.15 in 0.2 mi Calm Calm - N/A   Unknown
5:55 AM 62.6 °F - 62.6 °F 100% 30.16 in 0.2 mi Calm Calm - N/A   Overcast
6:15 AM 62.6 °F - 62.6 °F 100% 30.17 in 0.2 mi Calm Calm - N/A   Overcast
6:35 AM 62.6 °F - 62.6 °F 100% 30.17 in 0.2 mi Calm Calm - N/A   Unknown
6:55 AM 64.4 °F - 64.4 °F 100% 30.18 in 0.2 mi Calm Calm - N/A   Overcast
7:15 AM 66.2 °F - 64.4 °F 94% 30.19 in 1.2 mi Calm Calm - N/A   Mostly Cloudy
7:35 AM 68.0 °F - 66.2 °F 94% 30.19 in 6.0 mi Calm Calm - N/A   Clear
7:55 AM 69.8 °F - 66.2 °F 88% 30.19 in 8.0 mi Calm Calm - N/A   Clear
8:15 AM 71.6 °F - 68.0 °F 88% 30.20 in 10.0 mi Calm Calm - N/A   Clear
8:35 AM 73.4 °F - 68.0 °F 83% 30.20 in 10.0 mi Calm Calm - N/A   Clear
8:55 AM 75.2 °F - 68.0 °F 78% 30.20 in 10.0 mi Calm Calm - N/A   Clear
9:15 AM 77.0 °F - 66.2 °F 69% 30.20 in 10.0 mi Calm Calm - N/A   Clear
9:35 AM 78.8 °F - 68.0 °F 69% 30.21 in 10.0 mi East 3.5 mph - N/A   Clear
9:55 AM 80.6 °F 83.2 °F 68.0 °F 65% 30.22 in 10.0 mi East 4.6 mph - N/A   Clear
10:15 AM 80.6 °F 82.7 °F 66.2 °F 61% 30.22 in 10.0 mi Calm Calm - N/A   Clear
10:35 AM 82.4 °F 85.4 °F 68.0 °F 62% 30.21 in 10.0 mi East 3.5 mph - N/A   Clear
10:55 AM 82.4 °F 84.6 °F 66.2 °F 58% 30.21 in 8.0 mi East 6.9 mph - N/A   Clear
11:15 AM 82.4 °F 84.6 °F 66.2 °F 58% 30.21 in 3.0 mi East 5.8 mph - N/A   Clear
11:35 AM 84.2 °F 86.6 °F 66.2 °F 55% 30.20 in 10.0 mi ENE 5.8 mph - N/A   Clear
11:55 AM 84.2 °F 86.6 °F 66.2 °F 55% 30.20 in 10.0 mi ENE 8.1 mph - N/A   Clear
12:15 PM 84.2 °F 86.6 °F 66.2 °F 55% 30.20 in 10.0 mi East 10.4 mph - N/A   Clear
12:35 PM 86.0 °F 87.3 °F 64.4 °F 48% 30.20 in 10.0 mi East 8.1 mph - N/A   Clear
12:55 PM 86.0 °F 87.3 °F 64.4 °F 48% 30.20 in 10.0 mi East 3.5 mph - N/A   Scattered Clouds
1:15 PM 87.8 °F 89.4 °F 64.4 °F 46% 30.19 in 10.0 mi SSE 6.9 mph - N/A   Scattered Clouds
1:35 PM 87.8 °F 89.4 °F 64.4 °F 46% 30.19 in 10.0 mi Variable 6.9 mph - N/A   Scattered Clouds
1:55 PM 86.0 °F 86.6 °F 62.6 °F 45% 30.19 in 10.0 mi Calm Calm - N/A   Scattered Clouds
2:15 PM 87.8 °F 89.4 °F 64.4 °F 46% 30.19 in 10.0 mi ENE 8.1 mph - N/A   Scattered Clouds
2:35 PM 84.2 °F 85.6 °F 64.4 °F 51% 30.19 in 10.0 mi ESE 5.8 mph - N/A   Partly Cloudy
2:55 PM 87.8 °F 89.4 °F 64.4 °F 46% 30.18 in 10.0 mi ENE 8.1 mph - N/A   Partly Cloudy
3:15 PM 84.2 °F 85.0 °F 62.6 °F 48% 30.18 in 10.0 mi North 3.5 mph - N/A   Partly Cloudy
3:35 PM 87.8 °F 87.6 °F 60.8 °F 40% 30.18 in 10.0 mi East 6.9 mph - N/A   Clear
3:55 PM 87.8 °F 88.5 °F 62.6 °F 43% 30.18 in 10.0 mi East 6.9 mph - N/A   Mostly Cloudy
4:15 PM 87.8 °F 87.6 °F 60.8 °F 40% 30.19 in 4.0 mi SSE 4.6 mph - N/A   Scattered Clouds
4:35 PM 87.8 °F 88.5 °F 62.6 °F 43% 30.18 in 10.0 mi SE 4.6 mph - N/A   Clear
4:55 PM 87.8 °F 88.5 °F 62.6 °F 43% 30.18 in 10.0 mi Calm Calm - N/A   Partly Cloudy
5:15 PM 86.0 °F 86.1 °F 60.8 °F 43% 30.18 in 10.0 mi East 4.6 mph - N/A   Clear
5:35 PM 84.2 °F 85.6 °F 64.4 °F 51% 30.18 in 4.0 mi Calm Calm - N/A   Partly Cloudy
5:55 PM 84.2 °F 86.6 °F 66.2 °F 55% 30.18 in 3.0 mi ENE 4.6 mph - N/A   Partly Cloudy
6:15 PM 82.4 °F 84.6 °F 66.2 °F 58% 30.18 in 10.0 mi Calm Calm - N/A   Partly Cloudy
6:35 PM 80.6 °F 83.2 °F 68.0 °F 65% 30.18 in 10.0 mi Calm Calm - N/A   Scattered Clouds
6:55 PM 80.6 °F 82.7 °F 66.2 °F 61% 30.18 in 10.0 mi Calm Calm - N/A   Mostly Cloudy
7:15 PM 75.2 °F - 68.0 °F 78% 30.19 in 10.0 mi Calm Calm - N/A   Scattered Clouds
7:35 PM 73.4 °F - 66.2 °F 78% 30.20 in 10.0 mi Calm Calm - N/A   Mostly Cloudy
7:55 PM 73.4 °F - 66.2 °F 78% 30.20 in 10.0 mi NE 3.5 mph - N/A   Mostly Cloudy
8:15 PM 71.6 °F - 66.2 °F 83% 30.21 in 10.0 mi Calm Calm - N/A   Partly Cloudy
8:35 PM 69.8 °F - 66.2 °F 88% 30.21 in 10.0 mi Calm Calm - N/A   Clear
8:55 PM 69.8 °F - 66.2 °F 88% 30.22 in 10.0 mi Calm Calm - N/A   Clear
9:15 PM 69.8 °F - 66.2 °F 88% 30.22 in 10.0 mi ENE 3.5 mph - N/A   Clear
9:35 PM 69.8 °F - 66.2 °F 88% 30.23 in 10.0 mi ENE 3.5 mph - N/A   Clear
9:55 PM 66.2 °F - 64.4 °F 94% 30.23 in 10.0 mi Calm Calm - N/A   Clear
10:15 PM 66.2 °F - 64.4 °F 94% 30.24 in 10.0 mi Calm Calm - N/A   Clear
10:35 PM 64.4 °F - 62.6 °F 94% 30.24 in 10.0 mi Calm Calm - N/A   Clear
10:55 PM 64.4 °F - 62.6 °F 94% 30.25 in 10.0 mi Calm Calm - N/A   Clear
11:15 PM 62.6 °F - 62.6 °F 100% 30.25 in 5.0 mi Calm Calm - N/A   Clear
11:35 PM 62.6 °F - 62.6 °F 100% 30.25 in 9.0 mi Calm Calm - N/A   Clear
11:55 PM 62.6 °F - 62.6 °F 100% 30.25 in 9.0 mi Calm Calm - N/A   Clear